Location: Grandview
(34.8900°N, 117.1058°W)
Time: 04:18:04
(UTC-07:00)

Envisat - Pass Details

Date: 15 October 2017
Orbit: 764 x 766 km, 98.2° (Epoch: 24 October)

Event Time Altitude Azimuth Distance (km) Brightness Sun altitude
Exits shadow 20:03:28 21° 23° (NNE) 1,652 4.5 -23.4°
Drops below altitude 10° 20:05:29 10° 8° (N) 2,305 5.4 -23.8°
Sets 20:07:58 0° 359° (N) 3,235 6.3 -24.3°
